{"data":{"norad_id":48794,"epoch":"2026-09-19T22:24:36.802656Z","epoch_age_seconds":74696,"freshness":"FRESH","line1":"1 48794U 21045AD  26262.93375929  .00000184  00000+0  45352-3 0  9993","line2":"2 48794  87.8985 240.3332 0001121  75.0786 285.0468 13.15548577256736","mean_motion":13.15548577,"eccentricity":0.0001121,"inclination_deg":87.8985,"raan_deg":240.3332,"arg_perigee_deg":75.0786,"mean_anomaly_deg":285.0468,"bstar":0.00045352,"rev_number":25673,"period_min":109.46004010614,"perigee_km":1200.9209561003,"apogee_km":1202.6203713985,"semimajor_km":7579.9076637494,"source":"CELESTRAK","updated_at":"2026-09-20T09:00:44.620914Z"}}